EW3845 Weather Reports


time (UTC)temp
C
wind
direction
speed
KPH
gust
KPH
rain 1hr
cm
rain 24hr
cm
rain mn
cm
humidity
%
barometer
mb
20260831224549 16 288 0.0 0.0 0.00 0.84 0.00 93 1016.6
20260831223051 16 360 0.0 0.0 0.00 0.84 0.00 93 1016.6
20260831221546 15 360 0.0 0.0 0.00 0.84 0.00 93 1016.6
20260831220045 15 360 0.0 0.0 0.00 0.84 0.84 93 1016.5
20260831214546 15 286 0.0 0.0 0.00 0.84 0.84 92 1016.6
20260831213047 15 286 0.0 0.0 0.00 0.84 0.84 92 1016.6
20260831211543 15 286 0.0 0.0 0.00 0.84 0.84 92 1016.4
20260831210040 16 286 0.0 0.0 0.00 0.84 0.84 92 1016.1
20260831204540 16 286 0.0 0.0 0.00 0.84 0.84 92 1016.0
20260831203040 16 286 0.0 0.0 0.00 0.84 0.84 92 1016.0
20260831201541 16 360 0.0 0.0 0.00 0.84 0.84 92 1015.9
20260831200039 16 360 0.0 0.0 0.00 0.84 0.84 91 1015.7
20260831194610 16 360 0.0 0.0 0.00 0.84 0.84 91 1015.4
20260831193032 16 360 0.0 0.0 0.00 0.84 0.84 91 1015.1
20260831191530 16 360 0.0 0.0 0.00 0.84 0.84 91 1014.9
20260831190035 16 285 0.0 0.0 0.00 0.84 0.84 91 1014.7
20260831184526 16 288 0.0 0.0 0.00 0.84 0.84 90 1014.5
20260831183025 16 288 0.0 0.0 0.00 0.84 0.84 90 1014.3
20260831181523 16 288 0.0 0.0 0.00 0.84 0.84 90 1014.1
20260831180022 17 360 0.0 0.0 0.00 0.84 0.84 91 1013.7
20260831175057 17 360 0.0 0.0 0.00 4.19 0.84 91 1013.8
20260831174608 17 284 0.0 0.0 0.00 4.19 0.84 91 1013.7
20260831174054 17 360 0.0 0.0 0.00 4.19 0.84 91 1013.7
20260831173651 17 286 0.0 0.0 0.00 4.19 0.84 92 1013.5
20260831173018 17 296 0.0 0.0 0.00 0.84 0.84 92 1013.3
20260831171523 17 286 0.0 0.0 0.00 0.84 0.84 93 1013.1
20260831170016 17 289 0.0 0.0 0.00 0.84 0.84 93 1013.0
20260831164513 17 286 0.0 0.0 0.00 0.84 0.84 92 1012.8
20260831163013 17 288 0.0 0.0 0.08 0.84 0.84 93 1012.8
20260831161511 16 360 0.0 0.0 0.20 0.84 0.84 93 1012.7
20260831160011 16 298 0.0 0.0 0.43 0.84 0.84 92 1012.7
20260831154520 16 290 0.0 0.0 0.56 0.84 0.84 91 1012.6
20260831153010 16 291 0.0 0.0 0.53 0.76 0.76 89 1012.6
20260831151506 16 360 0.0 0.0 0.38 0.61 0.61 87 1012.4
20260831150005 17 288 0.0 0.0 0.18 0.41 0.41 87 1012.1
20260831144502 18 298 0.0 0.0 0.05 0.25 0.25 85 1011.9
20260831143104 18 284 0.0 0.0 0.00 0.23 0.23 85 1011.5
20260831141559 17 360 0.0 0.0 0.00 0.23 0.23 87 1011.5
20260831140059 17 360 0.0 0.0 0.05 0.23 0.23 88 1011.3
20260831134558 17 360 0.0 0.0 0.05 0.23 0.23 88 1011.2
20260831133102 17 360 0.0 0.0 0.05 0.23 0.23 86 1011.2
20260831131603 17 286 0.0 0.0 0.05 0.23 0.23 86 1010.9
20260831124602 18 287 0.0 0.0 0.00 0.18 0.18 83 1010.1
20260831123056 18 288 0.0 0.0 0.00 0.18 0.18 85 1010.2
20260831121553 18 295 0.0 0.0 0.03 0.18 0.18 86 1010.2
20260831120052 19 360 0.0 0.0 0.05 0.18 0.18 89 1010.2
20260831114556 18 360 0.0 0.0 0.05 0.18 0.18 89 1010.4
20260831113056 18 284 0.0 0.0 0.05 0.18 0.18 88 1010.6
20260831111556 18 288 0.0 0.0 0.08 0.15 0.15 87 1010.6
20260831110052 18 286 0.0 0.0 0.05 0.13 0.13 90 1010.4
20260831104550 17 360 0.0 0.0 0.05 0.13 0.13 88 1010.6
20260831103048 17 360 0.0 0.0 0.05 0.13 0.13 85 1010.7
20260831101548 18 303 0.0 0.0 0.03 0.08 0.08 80 1010.7
20260831100110 20 360 0.0 0.0 0.00 0.05 0.05 72 1010.2
20260831094545 20 360 0.0 0.0 0.00 0.05 0.05 72 1010.1
20260831093045 20 302 0.0 0.0 0.00 0.05 0.05 73 1010.0
20260831091549 19 248 0.0 0.0 0.00 0.05 0.05 75 1010.0
20260831090040 20 254 0.0 0.0 0.00 0.05 0.05 74 1010.0
20260831084554 19 360 0.0 0.0 0.00 0.05 0.05 76 1010.0
20260831083040 18 360 0.0 0.0 0.00 0.05 0.05 78 1010.3
20260831081536 18 299 0.0 0.0 0.00 0.05 0.05 78 1010.3
20260831080035 18 360 0.0 0.0 0.00 0.05 0.05 77 1010.3
20260831074537 18 360 0.0 0.0 0.00 0.05 0.05 78 1010.3
20260831073038 18 24 0.0 0.0 0.00 0.05 0.05 79 1010.3
20260831071533 18 294 0.0 0.0 0.00 0.05 0.05 81 1010.2
20260831070033 18 256 0.0 0.0 0.00 0.05 0.05 85 1010.0
20260831064532 17 190 0.0 0.0 0.00 0.05 0.05 86 1009.9
20260831063032 17 192 0.0 0.0 0.00 0.05 0.05 86 1010.2
20260831061532 17 360 0.0 0.0 0.00 0.05 0.05 87 1009.9
20260831060031 17 180 0.0 0.0 0.00 0.05 0.05 88 1009.9
20260831054531 17 360 0.0 0.0 0.00 0.05 0.05 88 1009.8
20260831053035 16 360 0.0 0.0 0.00 0.05 0.05 89 1009.8
20260831051529 16 360 0.0 0.0 0.00 0.05 0.05 89 1009.7
20260831050031 16 360 0.0 0.0 0.00 0.05 0.05 89 1009.7
20260831044530 16 360 0.0 0.0 0.00 0.05 0.05 89 1009.7
20260831043036 16 360 0.0 0.0 0.00 0.05 0.05 89 1009.6
20260831041526 16 275 0.0 0.0 0.00 0.05 0.05 89 1009.6
20260831040026 16 218 0.0 0.0 0.00 0.05 0.05 89 1009.5
20260831034525 16 213 0.0 0.0 0.00 0.05 0.05 90 1009.4
20260831033025 16 252 0.0 0.0 0.00 0.05 0.05 90 1009.4
20260831031530 16 254 0.0 0.0 0.00 0.05 0.05 90 1009.4
20260831030022 16 360 0.0 0.0 0.00 0.05 0.05 89 1009.4
20260831024525 16 360 0.0 0.0 0.00 0.05 0.05 89 1009.4
20260831023021 16 360 0.0 0.0 0.03 0.05 0.05 88 1009.1
20260831021519 17 360 0.0 0.0 0.05 0.05 0.05 87 1009.2
20260831020017 17 360 0.0 0.0 0.05 0.05 0.05 87 1009.1
20260831014515 17 360 0.0 0.0 0.05 0.05 0.05 85 1009.3
20260831013030 17 257 0.0 0.0 0.03 0.03 0.03 83 1009.6
20260831011517 17 225 0.0 0.0 0.00 0.00 0.00 80 1009.3
20260831010015 18 226 0.0 0.0 0.00 0.05 0.00 79 1009.3
20260831004513 18 225 0.0 0.0 0.00 0.05 0.00 79 1009.3
20260831003014 18 225 0.0 0.0 0.00 0.05 0.00 79 1009.4
20260831001518 18 225 0.0 0.0 0.00 0.05 0.00 78 1009.7
20260831000003 18 225 0.0 0.0 0.00 0.05 0.00 77 1009.8
20260830234502 18 230 0.0 0.0 0.00 0.05 0.00 77 1009.8
20260830233001 18 232 0.0 0.0 0.00 0.05 0.00 76 1009.7
20260830231607 18 238 0.0 0.0 0.00 0.05 0.00 76 1009.7
20260830230058 18 238 0.0 0.0 0.00 0.05 0.00 76 1009.8